DECAYED

STARLINK-3633, 51793 (Decayed)

Orbit data source: Space-Track

STARLINK-3633, 51793 was a payload satellite owned by SpaceX/Seattle (US) in LEO that was launched on Fri, 25 Feb 2022 UTC via an FALCON 9 launch vehicle from the Air Force Western Test Range (AFWTR). Payload-class satellites include a variety of spacecraft equipped with specific instruments for various scientific and technological missions. These include communications satellites like Starlink; space stations such as the ISS; scientific satellites like the Hubble; Earth observation satellites from companies like Planet Labs, Umbra, and HawkEye 360; GPS; miniature CubeSats for education and research; and military/defense satellites.

Not visible in the next 10 days
Identifier
51793, 2022-017AB
Orbit
Decayed
Country
Flag of USUS
Related business
Manufacturer
SpaceX/Seattle
Mission
Decayed Commercial Communications
Bus & Motor
STARLINK, Unknown motor
Mass
297 kg wet, ~275 kg dry
Launch date (UTC)
2022-02-25 (4 years ago)
Launch vehicle
FALCON 9
Launch site
Air Force Western Test Range (AFWTR)
Object type
Payload
Rocket body
Debris
Shape & HBR
Box + 1 Pan, 10.1 m
Radar Cross Section
13.562 m², Large (>1 m²)

Expand to show TLE details & history
Last TLE update: 4 days ago

TLE from 4 days ago
0 STARLINK-3633
1 51793U 22017AB  26169.66051616  .01843878  11997-4  53321-3 0  9999
2 51793  53.2023 205.1680 0008435 342.5180  17.5572 16.26614750239927
Epoch: 2026-06-18T15:51Z
TLE epoch observation values (Epoch: 2026-06-18T15:51:08.596Z)
Latitude
0.00004°
Longitude
60.48156°
Altitude
197.304 km
Speed
7.792 km/s
True Right ascension
13h 40m 40s
True Declination
0° 00' 00"
Sunlit
Object was in full shadow at epoch
Visualization orbit readout
Latitude
Unknown
Longitude
Unknown
Altitude
Unknown
Speed
Unknown
Apparent Right ascension
Unknown
Apparent Declination
Unknown
Sunlit
N/A
Visualization observer readout
Local Sidereal Time
21:32:59
Azimuth
Unknown
Elevation
Unknown
Doppler factor
Unknown
Orbital elements
Apogee altitude
207.463 km
Perigee altitude
196.362 km
Semi-major axis
6,580.05 km
Eccentricity
0.00084
Inclination
53.2023°
RAAN
205.168°
Arg. of periapsis
342.518°
True anomaly
17.58639°
Mean anomaly
17.5572°
Eccentric anomaly
17.57179°
Mean motion
4.0663 °/min
Orbital period
88.53 mins
BSTAR
0.00053321
Loading maneuver chart data...
Computing Atmospheric mass density...
Loading historical data...
Loading historical data...
Loading historical data...
Loading historical data...
Loading historical data...
Loading historical data...
Loading historical data...

Documentation

Showing up to 5 results
|